Back to catalog

THORAD AGENA D DEB

AliveSSO
NORAD 4676·DEBRIS·🇺🇸 United States

Launched Apr 8, 1970 from Vandenberg Space Force Base

Loading…

Next Passes (next 24 hours)

TLE

FreshSource: Space-Track

Epoch: Sep 14, 2026, 09:41 UTC

1 04676U 70025AZ  26257.40373017 -.00000146  00000-0 -14253-3 0  9995
2 04676 100.0916 302.9383 0005876 128.8688 244.6522 13.55576960786606

Track THORAD AGENA D DEB in real time with AllMySat

Download on the App Store